Wind_Speed
8 6 5 4 3 2 1 0 1 1 1 1 1 1 1 1 1 1 1 1 1 1 2 2 3 3 4 5 6 6 6 5 5 6 5 5 5 4 4 4 3 3 3
9 8 6 5 4 3 2 1 1 1 1 1 1 2 2 1 1 1 1 2 2 1 1 1 2 2 3 4 5 5 6 6 6 6 6 6 5 5 5 5 5 5 4
11 9 8 6 4 4 3 2 1 1 1 1 2 2 2 1 1 1 2 2 2 2 1 1 2 2 3 3 4 4 5 6 6 6 7 6 6 6 6 6 6 6 5
12 11 9 7 6 5 4 3 2 2 2 2 2 2 2 1 1 1 1 2 2 2 1 1 1 1 1 2 3 3 5 5 6 6 7 7 7 7 6 6 6 6 6
13 12 11 9 7 6 6 5 4 3 3 3 3 3 2 1 1 1 1 2 2 2 2 1 1 1 1 2 2 3 4 5 6 6 6 7 8 8 7 7 7 7 7
14 13 12 10 9 8 7 6 5 5 4 4 3 3 3 2 1 0 1 1 2 2 2 2 1 1 1 2 3 3 3 4 4 5 6 7 8 8 8 8 8 8 8
15 14 13 12 10 9 8 7 7 6 6 5 5 4 3 3 2 2 1 0 1 1 1 2 2 2 2 2 2 3 4 4 4 5 6 6 7 7 8 8 8 9 9
16 15 15 13 12 10 10 9 8 8 7 7 6 5 5 4 4 3 2 1 1 0 1 1 1 1 2 2 2 3 3 4 4 5 5 6 6 7 7 8 9 10 10
17 16 15 14 13 12 11 10 10 9 9 8 7 7 7 6 5 5 4 3 2 2 1 1 1 2 2 2 3 3 3 3 4 5 5 6 6 7 8 8 9 10 10
17 17 15 15 14 13 12 12 11 11 10 10 9 9 8 8 7 6 5 5 4 4 3 3 3 3 4 4 4 4 4 5 5 6 6 6 7 7 8 9 10 10 10
18 18 16 15 14 14 13 13 13 12 11 11 11 10 10 9 8 8 7 7 6 6 6 6 6 6 6 6 6 6 6 7 7 7 8 8 8 9 9 9 10 10 11
17 18 17 16 16 15 15 14 14 13 12 12 12 11 11 10 10 9 9 9 8 8 8 8 8 8 8 8 8 8 8 9 9 9 10 10 10 10 11 11 11 12 13
18 18 18 17 17 17 16 15 15 15 14 13 13 13 13 12 12 12 11 11 11 11 11 11 11 10 10 10 10 11 11 11 11 12 12 12 13 13 13 14 14 15 15
19 19 19 19 18 18 17 17 17 17 16 15 15 15 15 15 15 14 14 14 14 14 13 13 13 13 12 13 14 14 14 14 14 15 15 16 16 16 17 17 17 17 18
19 20 20 20 20 19 18 17 18 18 17 16 16 17 17 18 18 18 17 17 16 16 16 16 16 16 16 16 16 17 17 17 18 18 18 19 19 20 20 20 21 22 22
19 20 21 21 21 21 20 20 19 19 18 18 18 18 19 19 20 20 20 19 19 19 19 19 19 19 19 19 19 20 20 20 21 21 22 22 22 23 23 24 25 25 26
20 20 22 22 22 22 22 22 21 21 20 20 20 20 20 21 21 21 22 22 22 21 21 22 22 21 21 22 22 22 22 23 23 24 24 25 26 26 27 27 28 29 29
20 20 21 22 22 23 23 23 23 23 23 22 22 22 22 22 22 23 23 23 23 23 23 24 24 24 24 24 25 25 25 26 26 27 27 28 29 29 30 30 31 32 33
19 20 21 22 22 22 24 24 25 25 24 24 24 24 24 24 24 24 24 25 25 25 25 26 26 26 26 27 27 27 27 28 29 29 30 31 32 32 33 34 34 35 36
18 20 21 22 23 23 24 25 25 25 26 27 27 27 27 26 26 26 26 26 26 27 27 28 28 28 28 28 29 30 30 31 32 32 33 34 34 35 36 37 38 38 39
19 20 20 21 22 22 22 24 25 25 26 27 27 28 28 27 27 26 26 27 27 28 29 29 30 30 31 31 32 33 33 34 35 36 37 37 38 38 39 40 41 41 42
18 20 21 21 22 22 22 23 24 25 25 26 27 27 27 27 28 28 28 28 29 30 31 31 32 32 33 34 35 35 36 36 38 39 40 41 41 42 43 43 43 44 44
17 18 20 21 22 23 23 24 24 25 25 25 26 28 28 28 29 30 30 30 31 33 34 34 34 35 36 37 37 38 39 39 41 42 43 44 45 45 46 46 46 47 47
18 19 20 21 22 23 24 24 24 26 27 27 27 27 29 30 30 31 32 33 33 34 35 36 36 37 39 40 41 41 42 42 43 44 45 45 46 47 48 49 49 49 50
18 19 19 21 22 23 24 25 25 26 26 26 26 28 29 30 31 32 33 34 35 36 37 38 39 40 41 42 42 43 43 44 45 46 46 47 48 49 50 51 52 53 53
19 20 20 21 22 23 25 25 26 26 26 27 28 29 29 30 31 33 34 35 36 36 37 38 39 40 41 42 43 44 45 45 46 47 48 49 50 51 52 53 54 55 56
Wind_Direction
214 212 209 218 224 229 228 134 107 132 132 127 122 120 110 73 66 70 32 19 359 301 269 254 240 233 226 224 217 215 215 215 217 216 216 221 227 231 231 234 239 245 251
217 216 217 220 221 222 218 201 187 171 158 142 136 137 125 95 79 72 51 30 10 338 305 277 255 228 225 228 221 218 217 221 224 226 228 232 236 236 238 244 246 249 254
222 218 217 218 219 220 216 212 206 189 184 163 155 151 137 111 82 60 45 32 18 3 336 306 287 260 239 229 218 218 223 228 232 235 235 236 237 239 243 247 249 250 253
221 219 218 219 220 220 218 215 212 200 184 168 161 163 151 110 80 52 37 25 22 22 19 352 339 313 269 239 230 229 231 234 237 238 238 238 241 244 246 250 250 251 253
220 222 220 220 222 221 217 216 218 213 200 185 174 176 174 147 123 74 45 36 36 27 23 16 1 333 303 265 263 255 249 246 243 244 247 243 242 246 248 251 253 252 256
222 224 223 224 223 221 220 217 219 219 212 204 199 199 200 201 221 270 19 35 31 19 17 30 27 2 322 283 276 273 267 263 258 254 255 252 246 245 248 255 257 256 259
222 226 225 224 223 221 222 222 223 224 219 218 217 216 214 220 233 245 256 307 5 14 28 30 21 3 349 326 293 281 274 271 268 261 260 263 258 252 254 257 260 261 263
226 227 227 226 223 223 224 225 226 224 222 221 220 220 222 226 229 230 234 237 252 292 0 14 24 8 347 338 318 297 285 283 278 271 268 270 271 265 266 265 265 267 268
228 227 227 226 225 226 226 227 227 226 224 224 223 225 230 231 231 235 238 241 247 255 287 309 315 324 324 325 321 310 298 296 290 284 280 279 277 276 277 273 271 272 273
226 225 227 226 226 228 230 230 229 228 227 227 227 229 231 233 237 242 247 251 253 257 266 274 285 293 300 300 298 294 289 289 289 284 281 279 281 284 283 281 277 274 276
225 226 226 225 227 229 231 232 231 230 231 231 231 231 233 236 241 247 254 257 256 257 262 269 276 281 286 289 288 286 283 283 282 282 282 282 280 281 282 285 284 282 282
228 228 228 229 231 232 234 234 232 231 232 233 233 233 236 240 245 249 255 258 260 262 264 266 272 276 279 281 281 281 284 282 282 282 283 282 281 281 281 282 283 284 285
230 230 230 232 232 233 234 235 235 233 233 236 238 239 241 245 248 251 256 259 262 265 267 268 272 275 274 275 277 278 279 279 280 280 282 282 281 280 280 281 281 283 284
229 231 232 232 232 232 235 235 235 234 236 240 241 242 244 247 249 253 257 260 262 264 267 269 271 274 276 276 276 276 275 276 278 279 279 279 280 279 279 280 280 281 282
231 233 232 233 234 233 235 236 237 237 238 241 245 247 248 250 252 255 258 260 262 264 266 269 271 273 276 277 276 276 276 277 278 278 280 279 278 277 277 277 278 279 281
234 235 233 233 234 235 236 237 238 239 241 245 248 250 253 254 255 256 258 260 263 266 268 269 271 273 276 277 277 277 277 276 277 278 279 279 279 278 277 277 277 278 279
236 236 233 234 236 237 238 238 239 242 245 248 251 254 256 257 258 259 260 263 264 266 267 269 271 273 276 277 279 279 279 278 277 278 278 279 280 280 279 278 278 277 278
237 236 235 238 240 240 241 241 242 244 247 251 254 254 256 257 258 261 263 265 266 268 269 269 271 273 274 275 276 279 280 280 279 279 279 279 280 280 280 280 279 278 278
238 238 240 241 242 242 243 245 246 247 250 253 255 257 257 258 258 261 263 265 267 269 270 269 271 273 274 277 277 277 280 281 281 280 280 280 279 280 280 280 279 278 279
240 241 242 242 244 245 247 246 247 249 253 254 256 258 258 258 259 262 264 265 266 267 268 269 271 273 275 277 276 277 279 280 280 280 281 281 281 281 281 281 280 280 279
240 241 243 244 245 248 249 248 248 251 255 256 258 259 259 262 262 263 264 265 266 268 269 269 271 273 275 276 276 278 279 279 279 280 280 281 281 281 282 281 281 281 280
245 245 245 246 247 249 250 249 252 255 256 257 259 261 262 264 265 265 266 266 267 269 270 271 272 274 275 276 277 279 279 278 278 279 280 281 282 282 282 282 282 282 281
247 249 250 249 249 252 253 252 252 255 258 259 259 260 262 265 266 267 268 269 269 269 269 270 272 275 276 278 279 280 281 281 280 279 280 282 282 282 283 283 283 283 282
250 251 252 253 253 254 255 255 257 259 261 262 263 264 265 266 267 269 270 272 273 273 272 273 274 276 277 279 280 280 280 280 281 281 281 282 282 283 283 283 284 283 283
253 254 257 256 256 255 256 257 260 262 262 264 267 268 269 269 270 271 273 275 277 277 276 276 277 278 279 280 281 282 282 283 282 282 282 282 282 282 283 284 284 284 283
258 259 259 259 260 259 260 263 266 268 269 271 273 274 273 274 275 276 278 278 280 279 278 277 278 279 280 281 282 283 283 283 284 284 283 283 284 284 284 285 285 284 284
Height
5896 5897 5897 5898 5898 5899 5899 5899 5899 5899 5900 5900 5900 5900 5900 5900 5900 5900 5900 5900 5900 5900 5900 5900 5900 5900 5900 5901 5901 5902 5903 5903 5904 5904 5905 5906 5906 5907 5907 5907 5907 5908 5908
5895 5896 5897 5897 5898 5898 5898 5899 5899 5899 5899 5899 5900 5900 5900 5900 5900 5900 5900 5900 5899 5899 5899 5899 5899 5899 5899 5900 5900 5901 5902 5902 5903 5904 5904 5905 5905 5906 5906 5906 5907 5907 5907
5894 5895 5896 5896 5897 5897 5898 5898 5899 5899 5899 5899 5900 5900 5900 5900 5900 5900 5900 5899 5899 5899 5899 5899 5899 5899 5899 5899 5900 5900 5901 5902 5902 5903 5903 5904 5904 5905 5905 5905 5906 5906 5906
5892 5893 5895 5895 5896 5896 5897 5898 5898 5898 5899 5899 5900 5900 5900 5900 5900 5900 5900 5899 5899 5899 5899 5898 5898 5899 5899 5899 5899 5900 5900 5901 5901 5902 5902 5903 5903 5904 5904 5904 5904 5905 5905
5890 5891 5893 5894 5895 5895 5896 5897 5897 5898 5899 5899 5899 5900 5900 5900 5900 5900 5900 5899 5899 5899 5898 5898 5898 5898 5898 5898 5899 5899 5899 5900 5900 5900 5901 5901 5902 5902 5903 5903 5903 5904 5904
5888 5889 5891 5892 5893 5894 5895 5896 5896 5897 5898 5898 5899 5899 5900 5900 5900 5900 5900 5899 5899 5899 5898 5898 5898 5898 5898 5898 5898 5898 5898 5899 5899 5899 5900 5900 5900 5901 5901 5901 5902 5902 5902
5885 5887 5889 5890 5891 5893 5894 5895 5895 5896 5897 5898 5899 5899 5899 5899 5900 5900 5900 5899 5899 5899 5898 5898 5898 5898 5898 5898 5898 5898 5898 5898 5898 5898 5898 5898 5899 5899 5899 5900 5900 5900 5900
5883 5885 5887 5888 5889 5891 5892 5893 5894 5895 5896 5897 5897 5898 5899 5900 5899 5899 5899 5899 5899 5899 5898 5898 5898 5897 5897 5897 5897 5897 5897 5897 5897 5897 5897 5897 5897 5897 5898 5898 5898 5898 5898
5880 5883 5884 5886 5888 5889 5890 5892 5893 5894 5895 5896 5896 5897 5898 5898 5899 5899 5899 5899 5899 5899 5898 5898 5898 5897 5897 5896 5896 5896 5896 5896 5896 5896 5896 5896 5896 5896 5896 5896 5896 5896 5896
5878 5880 5882 5884 5885 5887 5888 5890 5891 5892 5893 5894 5895 5896 5897 5897 5898 5898 5898 5898 5898 5898 5898 5897 5897 5897 5896 5896 5895 5895 5895 5895 5895 5894 5894 5894 5894 5894 5894 5894 5893 5893 5893
5875 5877 5879 5881 5883 5884 5886 5887 5888 5890 5891 5892 5893 5894 5895 5895 5896 5897 5897 5897 5897 5897 5896 5896 5896 5895 5895 5894 5894 5894 5894 5893 5893 5893 5892 5892 5892 5892 5892 5891 5891 5891 5891
5872 5874 5876 5878 5880 5882 5883 5884 5886 5887 5889 5890 5891 5892 5893 5893 5894 5894 5895 5895 5895 5895 5895 5894 5894 5894 5893 5893 5892 5892 5892 5891 5891 5891 5890 5890 5890 5890 5889 5889 5889 5888 5888
5869 5871 5873 5875 5877 5879 5880 5882 5883 5885 5886 5887 5888 5889 5890 5891 5891 5892 5892 5892 5892 5892 5892 5892 5891 5891 5891 5890 5890 5890 5889 5889 5889 5888 5888 5887 5887 5887 5886 5886 5886 5885 5885
5865 5867 5869 5871 5873 5875 5877 5879 5880 5881 5883 5884 5885 5886 5887 5887 5888 5889 5889 5889 5889 5889 5889 5889 5888 5888 5888 5887 5887 5887 5886 5886 5885 5885 5884 5884 5883 5883 5883 5882 5882 5881 5880
5861 5863 5866 5868 5870 5872 5873 5875 5876 5878 5879 5880 5881 5882 5883 5883 5884 5885 5885 5885 5886 5885 5885 5885 5884 5884 5884 5884 5883 5883 5882 5882 5881 5881 5880 5880 5879 5878 5878 5877 5877 5876 5876
5857 5859 5862 5864 5866 5868 5870 5871 5873 5874 5875 5876 5877 5878 5879 5879 5880 5880 5880 5880 5881 5881 5881 5880 5880 5880 5879 5879 5878 5878 5877 5877 5876 5876 5875 5874 5873 5873 5872 5872 5871 5870 5870
5852 5854 5857 5860 5862 5864 5865 5867 5868 5870 5871 5872 5872 5873 5873 5874 5875 5875 5875 5875 5875 5875 5875 5875 5875 5874 5874 5874 5873 5872 5871 5871 5870 5870 5869 5868 5867 5866 5866 5865 5864 5863 5863
5848 5850 5853 5855 5857 5859 5861 5862 5864 5865 5866 5867 5867 5868 5868 5869 5869 5869 5870 5870 5870 5869 5869 5869 5869 5868 5868 5867 5867 5866 5865 5864 5864 5863 5862 5861 5860 5859 5858 5857 5856 5855 5854
5844 5846 5848 5850 5852 5854 5855 5857 5858 5859 5860 5861 5862 5862 5863 5863 5863 5863 5863 5863 5863 5863 5863 5863 5862 5862 5861 5860 5860 5859 5858 5857 5856 5855 5854 5853 5852 5851 5849 5848 5847 5846 5845
5840 5842 5844 5845 5847 5848 5849 5851 5852 5853 5854 5855 5856 5856 5856 5857 5857 5857 5857 5857 5857 5856 5856 5855 5855 5854 5854 5853 5852 5851 5850 5849 5848 5846 5845 5844 5843 5841 5840 5838 5837 5836 5834
5836 5838 5839 5841 5842 5843 5844 5845 5846 5847 5848 5849 5849 5849 5850 5850 5850 5850 5850 5850 5850 5849 5849 5848 5848 5847 5846 5845 5844 5843 5842 5840 5839 5837 5836 5834 5833 5831 5829 5828 5826 5825 5823
5832 5833 5835 5836 5837 5838 5839 5840 5841 5841 5842 5842 5842 5842 5843 5843 5843 5843 5843 5843 5842 5842 5841 5840 5839 5839 5837 5836 5835 5833 5832 5831 5829 5828 5826 5824 5821 5820 5818 5816 5814 5813 5810
5829 5829 5830 5831 5832 5833 5834 5835 5835 5835 5835 5835 5835 5835 5836 5836 5836 5836 5835 5835 5834 5833 5832 5831 5830 5829 5828 5827 5825 5824 5822 5820 5818 5816 5814 5812 5810 5808 5805 5803 5802 5799 5797
5825 5825 5825 5826 5827 5828 5828 5829 5829 5829 5829 5829 5829 5828 5828 5828 5828 5827 5827 5826 5825 5824 5823 5822 5821 5819 5818 5816 5815 5813 5811 5809 5807 5804 5802 5800 5797 5795 5792 5789 5787 5785 5783
5820 5821 5821 5821 5822 5822 5822 5823 5823 5823 5822 5822 5822 5821 5821 5820 5820 5819 5818 5817 5816 5815 5814 5812 5811 5809 5807 5805 5803 5802 5799 5797 5794 5792 5790 5787 5784 5781 5778 5775 5772 5770 5767
5816 5816 5816 5816 5816 5816 5817 5817 5817 5816 5816 5815 5815 5814 5813 5812 5812 5811 5809 5808 5806 5804 5803 5802 5800 5798 5796 5794 5792 5789 5787 5784 5781 5778 5775 5773 5769 5766 5764 5760 5756 5753 5750